Location: Julian California
(33.0790°N, 116.6010°W)
Time: 16:58:22
(UTC-07:00)

Cosmos 1697 Rocket - Pass Details

Date: 28 March 2019
Orbit: 834 x 842 km, 71.0° (Epoch: 23 April)

Event Time Altitude Azimuth Distance (km) Brightness Sun altitude
Rises 20:11:44 0° 254° (WSW) 3,385 6.9 -14.9°
Reaches altitude 10° 20:16:08 10° 287° (WNW) 2,454 6.5 -15.8°
Maximum altitude 20:17:58 12° 306° (NW) 2,346 6.1 -16.1°
Drops below altitude 10° 20:19:49 10° 325° (NW) 2,456 5.8 -16.5°
Sets 20:24:16 0° 358° (N) 3,393 6.1 -17.4°
